Regional Weather Roundup
Issued by NWS Northern Indiana

Home | Current Version | Previous Version | Graphics & Text | Print | Product List | Glossary On
Versions: 1 2 3 4 5 6 7 8 9 10 11 12 13 14 15 16 17 18 19 20 21 22 23 24 25 26 27 28 29 30 31 32 33 34 35 36 37 38 39 40 41 42 43 44 45 46 47 48 49 50
000
ASUS43 KIWX 041300
RWRIWX

KIWX WEATHER ROUNDUP
NATIONAL WEATHER SERVICE NORTHERN INDIANA
900 AM EDT FRI SEP 04 2015

NOTE: "FAIR" INDICATES FEW OR NO CLOUDS BELOW 12,000 FEET WITH NO
SIGNIFICANT WEATHER AND/OR OBSTRUCTIONS TO VISIBILITY.

* THESE STATIONS ARE NOT UNDER NWS QUALITY CONTROL. THEY ALSO MAY NOT
  REPORT WEATHER SUCH AS PRECIPITATION OR FOG.

INZ001>027-041400-
NORTHERN INDIANA

CITY           SKY/WX    TMP DP  RH WIND       PRES   REMARKS
GARY*          PTSUNNY   73  68  83 CALM      30.02R
VALPARAISO     PTSUNNY   70  67  90 NE3       30.02R FOG
SOUTH BEND     CLOUDY    69  66  90 CALM      30.02R
ELKHART*       CLOUDY    68  66  94 N5        30.02R
GOSHEN         CLOUDY    69  66  90 CALM      30.01R
ANGOLA*        CLOUDY    72  63  73 NW5       30.01S
FORT WAYNE     PTSUNNY   73  68  84 SW3       30.02R
PERU/GRISSOM   SUNNY     72  68  88 SW5       30.01S FOG

$$
INZ028>050-041400-
CENTRAL INDIANA

CITY           SKY/WX    TMP DP  RH WIND       PRES   REMARKS
LAFAYETTE      SUNNY     71  68  90 CALM      30.01R FOG
KOKOMO*        SUNNY     73  64  73 CALM      30.03R
MUNCIE*        SUNNY     73  67  81 VRB6      30.03R
INDIANAPOLIS   MOSUNNY   74  67  78 W7        30.03R

$$
MIZ043>046-050>051-056>058-064>065-071>073-077>080-041400-
SOUTHWEST LOWER MICHIGAN

CITY           SKY/WX    TMP DP  RH WIND       PRES   REMARKS
BATTLE CREEK   CLOUDY    69  66  90 W5        30.02R FOG
BENTON HARBOR  CLOUDY    70  65  84 CALM      30.01R
COLDWATER*     CLOUDY    68  67  95 CALM      30.01S FOG
HILLSDALE*     CLOUDY    70  70 100 SW3       30.01S FOG
HOLLAND        CLOUDY    70  67  90 NW5       30.01R
GRAND RAPIDS   CLOUDY    69  67  93 W3        30.00R FOG
KALAMAZOO      CLOUDY    71  64  78 N3        30.01R
STURGIS*       CLOUDY    68  66  94 CALM      30.01S
THREE RIVERS*  CLOUDY    71  66  85 CALM      30.02R

$$
OHZ001>008-015>018-024>025-041400-
NORTHWEST OHIO

CITY           SKY/WX    TMP DP  RH WIND       PRES   REMARKS
DEFIANCE       SUNNY     73  69  87 S3        30.01R FOG
FINDLAY        PTSUNNY   74  67  78 S10       30.02R
TOLEDO EXPRESS SUNNY     70  67  90 S6        30.00R
TOLEDO METCALF SUNNY     72  66  81 S10       30.01R
LIMA           PTSUNNY   73  67  81 S10       30.03R

$$
AND FOR LAKE MICHIGAN COASTAL AND OPEN LAKE BUOY OBSERVATIONS

STATION/POSITION TEMP    WIND        PRES    VSBY  WAVE
                 AIR SEA DIR/SP/G                  HT/PER
                 (F)     (DEG/KT/KT) (MB)    (MI)  (FT/S)
CALUMET HARBOR    69      30/  2/  3   N/A
MICHIGAN CITY     71      20/  5/  6   N/A
SAINT JOSEPH      70      20/  1/  6 1016.6R
SOUTH LAKE BUOY   65 71  320/  8/ 10 1015.5R         1/ 4
4 MI NW BRIDGMAN  71 73   60/  8/ 10   N/A           1/ 4
MICHIGAN CITY     71 73   50/  4/  6   N/A           2/ 4

$$
&&


USA.gov is the U.S. government's official web portal to all federal, state and local government web resources and services.